[Iaude] MPEC P11: 2024 OZ1 [a=1.41,e=0.40,i=5.3,H=25.7]
    mpec at cfa.harvard.edu 
    mpec at cfa.harvard.edu
       
    Thu Aug  1 10:40:51 EDT 2024
    
    
  
M.P.E.C. 2024-P11                                Issued 2024 August 1, 14:39 UT
     The Minor Planet Electronic Circulars contain information on unusual
         minor planets, routine data on comets and natural satellites,
         and occasional editorial announcements.  They are published
    on behalf of Division F of the International Astronomical Union by the
          Minor Planet Center, Smithsonian Astrophysical Observatory,
                          Cambridge, MA 02138, U.S.A.
			  
             Prepared using the Tamkin Foundation Computer Network
                              MPC at CFA.HARVARD.EDU
            URL https://www.minorplanetcenter.net/    ISSN 1523-6714
                                    2024 OZ1                                    
Observations:
     K24O01Z* C2024 07 30.90786719 08 18.566-40 33 41.62         19.36oVEP011M22
     K24O01Z  C2024 07 30.91110619 08 26.258-40 33 28.12         19.10oVEP011M22
     K24O01Z  C2024 07 30.91842119 08 43.805-40 32 57.19         19.43oVEP011M22
     K24O01Z  C2024 07 30.92991219 09 11.208-40 32 09.82         19.32oVEP011M22
     K24O01Z KB2024 07 31.96992 19 43 52.289-39 18 14.98         18.4 GXEP011L87
     K24O01Z KB2024 07 31.97667 19 44 02.023-39 17 44.23         18.5 GXEP011L87
     K24O01Z KB2024 07 31.98341 19 44 11.570-39 17 11.76         18.0 GXEP011L87
     K24O01Z KC2024 08 01.56485119 57 39.187-38 34 56.24         19.8 GVEP011474
     K24O01Z KC2024 08 01.56620819 57 40.769-38 34 50.88         18.5 GVEP011474
     K24O01Z KC2024 08 01.56756719 57 42.228-38 34 44.51         19.2 GVEP011474
     K24O01Z KC2024 08 01.57028519 57 45.286-38 34 31.80         20.0 GVEP011474
     K24O01Z KC2024 08 01.57164419 57 46.843-38 34 26.33         19.5 GVEP011474
Observer details:
474 Mount John Observatory, Lake Tekapo.  Observers A. C. Gilmore, P. M.
    Kilmartin.  Measurer P. M. Kilmartin.  0.6-m f/6.3 Reflector + CCD.
L87 Moonbase South Observatory, Hakos.  Observer G. Duszanowicz.  0.28-m f/1.9
    reflector + CMO.
M22 ATLAS South Africa, Sutherland.  Observers L. Denneau, R. Siverd, J.
    Tonry, H. Weiland.  Measurers L. Denneau, N. Erasmus, A. Fitzsimmons, J.
    Robinson, R. Siverd, J. Tonry, H. Weiland.  0.5-m Reflector + CCD.
Orbital elements:
2024 OZ1                                                 Earth MOID = 0.0013 AU
Epoch 2024 Oct. 17.0 TT = JDT 2460600.5                 Alexandersen            
M  77.58734              (2000.0)            P               Q                  
n   0.58896918     Peri.  114.28139     -0.53842201     +0.83910947             
a   1.4095300      Node   122.92019     -0.80273040     -0.48277047             
e   0.4047968      Incl.    5.29329     -0.25637011     -0.25065510             
P   1.67           H   25.72          G   0.15           U   8                  
Residuals in seconds of arc
240730 M22  0.5+  0.1-    240731 L87  0.1-  0.6+    240801 474  0.9+  0.7-
240730 M22  0.4-  0.1+    240731 L87  0.6+  0.5-    240801 474  0.2-  0.2-
240730 M22  0.0   0.7+    240731 L87  0.6-  0.0     240801 474  0.6-  0.7+
240730 M22  0.0   0.6-    240801 474  0.5+  0.2-    240801 474  0.5-  0.2+
Ephemeris:
2024 OZ1                 a,e,i = 1.41, 0.40, 5                   q = 0.8390
Date    TT    R. A. (2000) Decl.     Delta      r    Elong.  Phase     V
2024 07 02    09 39 32.5 +28 02 47   0.1764  0.8878    39.5   133.2    27.7
...
2024 07 17    10 12 00.9 +24 59 49   0.07250 0.9568    33.7   143.9    27.3
...
2024 07 25    11 36 05.4 +10 03 08   0.02222 1.0012    48.7   130.4    23.2
...
2024 07 31    19 12 11.7 -40 26 51   0.02468 1.0367   150.7    28.6    19.0
2024 08 01    19 44 45.5 -39 14 58   0.03054 1.0428   155.0    24.3    19.4
2024 08 02    20 05 57.3 -38 07 19   0.03667 1.0489   157.6    21.7    19.7
...
2024 08 08    20 54 50.4 -34 15 14   0.07568 1.0860   161.5    17.3    21.2
...
2024 08 16    21 12 23.0 -32 04 26   0.1309  1.1368   160.4    17.4    22.5
...
2024 08 31    21 25 01.8 -29 32 55   0.2449  1.2328   153.1    21.8    24.2
M. P. C. Staff               (C) Copyright 2024 MPC           M.P.E.C. 2024-P11
    
    
More information about the Iaude
mailing list